﻿_id,Date,Time,Brisbane CBD (South East Queensland) (Mm^-1),Flinders View (South East Queensland) (Mm^-1),Mountain Creek (South East Queensland) (Mm^-1),Rocklea (South East Queensland) (Mm^-1),Boat Creek (Gladstone) (Mm^-1),Boyne Island (Gladstone) (Mm^-1),Clinton (Gladstone) (Mm^-1),Fisherman's Landing (Gladstone) (Mm^-1),South Gladstone (Gladstone) (Mm^-1),Targinie (Gladstone) (Mm^-1),West Mackay (Mackay) (Mm^-1),North Ward (Townsville) (Mm^-1)
1,2017-01-01T00:00:00,00:00,,,,,,,,,,,,""
2,2017-01-01T00:00:00,01:00,14,15,9,19,9,16,9,9,9,7,4,""
3,2017-01-01T00:00:00,02:00,13,18,10,17,9,18,10,10,9,9,5,""
4,2017-01-01T00:00:00,03:00,13,18,12,16,9,21,9,11,9,10,5,""
5,2017-01-01T00:00:00,04:00,11,19,18,17,9,24,10,13,9,10,6,""
6,2017-01-01T00:00:00,05:00,13,21,18,18,9,25,9,17,29,9,5,""
7,2017-01-01T00:00:00,06:00,15,22,20,18,9,26,9,13,10,9,5,""
8,2017-01-01T00:00:00,07:00,10,14,16,14,8,22,8,9,8,8,5,""
9,2017-01-01T00:00:00,08:00,9,14,14,10,8,17,8,10,8,6,3,""
10,2017-01-01T00:00:00,09:00,9,11,13,9,9,15,8,12,9,7,2,""
11,2017-01-01T00:00:00,10:00,9,13,14,9,7,16,7,9,7,7,2,""
12,2017-01-01T00:00:00,11:00,14,13,15,11,6,17,6,7,5,6,1,""
13,2017-01-01T00:00:00,12:00,17,15,17,14,5,16,5,7,5,4,2,""
14,2017-01-01T00:00:00,13:00,13,14,22,14,5,16,4,11,5,3,4,""
15,2017-01-01T00:00:00,14:00,14,14,24,13,4,15,5,7,5,3,3,""
16,2017-01-01T00:00:00,15:00,20,14,28,18,5,14,5,6,6,4,3,""
17,2017-01-01T00:00:00,16:00,25,18,29,21,6,16,6,8,6,4,4,""
18,2017-01-01T00:00:00,17:00,28,20,29,22,5,15,7,6,7,5,4,""
19,2017-01-01T00:00:00,18:00,29,20,30,23,6,13,6,6,6,5,3,""
20,2017-01-01T00:00:00,19:00,27,20,30,21,6,18,7,7,9,5,4,""
21,2017-01-01T00:00:00,20:00,25,21,29,21,10,25,10,11,9,7,4,""
22,2017-01-01T00:00:00,21:00,25,20,28,20,7,28,7,10,7,8,3,""
23,2017-01-01T00:00:00,22:00,25,19,24,20,6,31,6,8,6,7,4,""
24,2017-01-01T00:00:00,23:00,22,20,23,19,5,32,6,7,6,6,5,""
25,2017-01-02T00:00:00,00:00,,,,,,,,,,,,""
26,2017-01-02T00:00:00,01:00,17,15,19,17,10,34,10,13,12,8,4,""
27,2017-01-02T00:00:00,02:00,19,17,21,17,12,29,11,13,17,12,5,""
28,2017-01-02T00:00:00,03:00,19,15,22,17,10,29,11,15,14,12,4,""
29,2017-01-02T00:00:00,04:00,19,15,25,18,10,28,9,13,10,10,4,""
30,2017-01-02T00:00:00,05:00,18,15,20,17,11,28,14,14,13,12,4,""
31,2017-01-02T00:00:00,06:00,19,16,18,17,9,28,11,9,11,11,4,""
32,2017-01-02T00:00:00,07:00,18,14,17,15,7,25,10,9,11,8,4,""
33,2017-01-02T00:00:00,08:00,16,13,16,14,8,21,10,9,11,7,5,""
34,2017-01-02T00:00:00,09:00,18,13,14,15,9,20,9,14,10,8,4,""
35,2017-01-02T00:00:00,10:00,18,11,14,17,10,31,8,12,10,6,3,""
36,2017-01-02T00:00:00,11:00,15,11,14,15,8,24,10,8,11,8,2,""
37,2017-01-02T00:00:00,12:00,13,14,15,14,7,23,7,7,8,5,2,""
38,2017-01-02T00:00:00,13:00,11,15,14,12,6,24,6,8,8,6,4,""
39,2017-01-02T00:00:00,14:00,12,13,16,10,5,24,7,7,9,5,6,""
40,2017-01-02T00:00:00,15:00,15,13,19,14,6,25,6,7,9,6,6,""
41,2017-01-02T00:00:00,16:00,16,13,19,14,7,25,7,9,9,7,4,""
42,2017-01-02T00:00:00,17:00,19,13,21,16,7,23,8,8,11,7,4,""
43,2017-01-02T00:00:00,18:00,20,14,21,16,7,24,7,8,12,9,3,""
44,2017-01-02T00:00:00,19:00,22,8,22,16,6,24,7,9,9,8,3,""
45,2017-01-02T00:00:00,20:00,15,4,21,8,6,23,9,7,9,8,3,""
46,2017-01-02T00:00:00,21:00,7,3,20,4,6,23,9,8,11,6,42,""
47,2017-01-02T00:00:00,22:00,3,3,19,4,5,22,8,7,9,6,27,""
48,2017-01-02T00:00:00,23:00,3,3,20,3,4,21,6,6,12,6,14,""
49,2017-01-03T00:00:00,00:00,,,,,,,,,,,,""
50,2017-01-03T00:00:00,01:00,3,3,12,7,4,15,4,7,7,7,9,""
51,2017-01-03T00:00:00,02:00,6,5,14,8,8,16,6,15,7,4,8,""
52,2017-01-03T00:00:00,03:00,12,6,11,12,7,16,10,7,10,7,6,""
53,2017-01-03T00:00:00,04:00,12,7,7,8,10,16,9,9,8,18,6,""
54,2017-01-03T00:00:00,05:00,9,9,11,8,7,16,7,9,7,12,9,""
55,2017-01-03T00:00:00,06:00,10,10,23,10,7,15,9,10,11,11,9,""
56,2017-01-03T00:00:00,07:00,9,9,22,11,13,14,12,14,15,16,8,""
57,2017-01-03T00:00:00,08:00,5,10,18,11,15,14,16,17,18,17,7,""
58,2017-01-03T00:00:00,09:00,7,8,16,7,16,16,15,18,19,16,7,""
59,2017-01-03T00:00:00,10:00,12,7,17,8,16,16,14,21,20,17,6,""
60,2017-01-03T00:00:00,11:00,14,5,17,12,20,16,16,24,25,21,4,""
61,2017-01-03T00:00:00,12:00,14,6,16,12,15,15,11,16,14,16,4,""
62,2017-01-03T00:00:00,13:00,13,10,13,12,11,16,10,14,13,12,5,""
63,2017-01-03T00:00:00,14:00,14,16,10,13,11,15,11,15,15,12,4,""
64,2017-01-03T00:00:00,15:00,16,17,9,15,13,15,12,16,15,13,4,""
65,2017-01-03T00:00:00,16:00,18,17,11,16,16,14,16,19,22,15,4,""
66,2017-01-03T00:00:00,17:00,19,17,18,15,15,14,13,19,17,18,4,""
67,2017-01-03T00:00:00,18:00,17,16,19,14,12,14,12,16,14,12,4,""
68,2017-01-03T00:00:00,19:00,16,14,20,14,10,16,9,13,12,11,2,""
69,2017-01-03T00:00:00,20:00,17,16,21,16,11,17,11,15,13,11,1,""
70,2017-01-03T00:00:00,21:00,17,19,24,16,10,18,8,12,9,11,0,""
71,2017-01-03T00:00:00,22:00,16,19,21,17,6,19,7,11,9,7,3,""
72,2017-01-03T00:00:00,23:00,15,19,27,15,8,34,8,12,12,9,5,""
73,2017-01-04T00:00:00,00:00,,,,,,,,,,,,""
74,2017-01-04T00:00:00,01:00,15,13,21,15,15,14,12,14,14,12,2,""
75,2017-01-04T00:00:00,02:00,16,14,21,11,15,16,13,17,14,15,2,""
76,2017-01-04T00:00:00,03:00,18,14,22,13,14,45,12,16,13,15,3,""
77,2017-01-04T00:00:00,04:00,20,10,22,15,13,16,13,16,14,14,2,""
78,2017-01-04T00:00:00,05:00,19,6,22,11,14,23,12,17,14,15,2,""
79,2017-01-04T00:00:00,06:00,19,7,22,14,13,18,10,14,12,14,3,""
80,2017-01-04T00:00:00,07:00,17,12,22,16,12,14,12,15,14,13,2,""
81,2017-01-04T00:00:00,08:00,16,13,18,14,17,13,16,20,20,18,8,""
82,2017-01-04T00:00:00,09:00,15,13,19,13,17,15,16,24,22,19,4,""
83,2017-01-04T00:00:00,10:00,13,11,20,13,18,15,16,23,23,20,2,""
84,2017-01-04T00:00:00,11:00,15,11,21,13,19,15,16,23,21,20,9,""
85,2017-01-04T00:00:00,12:00,12,12,20,12,15,17,13,19,16,17,10,""
86,2017-01-04T00:00:00,13:00,11,12,19,11,17,20,16,19,21,15,11,""
87,2017-01-04T00:00:00,14:00,11,10,19,12,17,19,15,23,21,19,11,""
88,2017-01-04T00:00:00,15:00,10,12,19,11,19,20,15,26,21,22,13,""
89,2017-01-04T00:00:00,16:00,13,13,25,13,18,12,15,23,22,22,15,""
90,2017-01-04T00:00:00,17:00,14,13,25,12,18,11,16,24,22,21,10,""
91,2017-01-04T00:00:00,18:00,15,13,23,15,18,6,16,24,22,21,5,""
92,2017-01-04T00:00:00,19:00,18,12,27,16,18,4,15,21,19,19,5,""
93,2017-01-04T00:00:00,20:00,20,13,27,18,16,2,15,20,19,17,5,""
94,2017-01-04T00:00:00,21:00,21,14,29,18,17,2,15,25,19,18,4,""
95,2017-01-04T00:00:00,22:00,21,15,30,19,15,1,12,21,16,17,3,""
96,2017-01-04T00:00:00,23:00,19,14,27,18,11,1,10,12,12,11,2,""
97,2017-01-05T00:00:00,00:00,,,,,,,,,,,,""
98,2017-01-05T00:00:00,01:00,17,12,16,15,13,1,10,12,10,11,6,""
99,2017-01-05T00:00:00,02:00,19,14,17,15,14,1,11,15,11,14,3,""
100,2017-01-05T00:00:00,03:00,19,15,20,15,13,2,10,13,11,15,4,""
101,2017-01-05T00:00:00,04:00,20,16,19,15,14,2,12,18,13,16,2,""
102,2017-01-05T00:00:00,05:00,17,17,23,16,16,3,13,17,14,17,1,""
103,2017-01-05T00:00:00,06:00,18,17,22,18,16,3,14,17,15,16,1,""
104,2017-01-05T00:00:00,07:00,21,15,20,17,16,2,14,18,18,17,1,""
105,2017-01-05T00:00:00,08:00,18,15,17,16,17,2,15,20,18,18,1,""
106,2017-01-05T00:00:00,09:00,18,13,13,16,17,3,17,21,26,17,0,""
107,2017-01-05T00:00:00,10:00,14,13,12,14,17,2,16,20,23,17,4,""
108,2017-01-05T00:00:00,11:00,7,12,14,7,14,3,15,15,19,14,9,""
109,2017-01-05T00:00:00,12:00,8,10,13,7,15,3,,16,19,13,10,""
110,2017-01-05T00:00:00,13:00,8,7,14,7,19,4,,21,27,17,8,""
111,2017-01-05T00:00:00,14:00,7,7,12,8,22,8,15,24,26,22,7,""
112,2017-01-05T00:00:00,15:00,9,7,12,8,20,10,17,23,25,21,5,""
113,2017-01-05T00:00:00,16:00,10,9,11,9,18,13,17,24,21,21,7,""
114,2017-01-05T00:00:00,17:00,10,9,12,9,18,22,18,23,21,20,5,""
115,2017-01-05T00:00:00,18:00,11,9,12,10,18,21,16,22,20,19,3,""
116,2017-01-05T00:00:00,19:00,11,10,12,11,17,17,16,21,19,18,6,""
117,2017-01-05T00:00:00,20:00,12,11,13,12,17,11,17,21,20,19,6,""
118,2017-01-05T00:00:00,21:00,12,12,14,10,18,11,19,21,19,19,10,""
119,2017-01-05T00:00:00,22:00,12,10,12,12,18,14,17,19,18,18,12,""
120,2017-01-05T00:00:00,23:00,13,11,12,14,18,13,16,20,17,18,17,""
121,2017-01-06T00:00:00,00:00,,,,,,,,,,,,""
122,2017-01-06T00:00:00,01:00,9,9,8,11,16,6,12,16,14,15,16,""
123,2017-01-06T00:00:00,02:00,13,8,7,8,15,6,13,19,15,17,10,""
124,2017-01-06T00:00:00,03:00,24,6,11,6,14,6,13,17,14,16,11,""
125,2017-01-06T00:00:00,04:00,25,6,14,4,14,7,12,16,13,16,16,""
126,2017-01-06T00:00:00,05:00,7,7,15,4,15,7,12,16,17,15,14,""
127,2017-01-06T00:00:00,06:00,8,6,15,5,15,6,14,16,15,15,10,""
128,2017-01-06T00:00:00,07:00,10,6,14,9,15,4,14,17,17,16,10,""
129,2017-01-06T00:00:00,08:00,10,8,13,9,16,3,15,19,21,17,9,""
130,2017-01-06T00:00:00,09:00,10,8,13,8,15,5,13,18,17,17,12,""
131,2017-01-06T00:00:00,10:00,9,8,10,8,13,9,11,18,17,16,14,""
132,2017-01-06T00:00:00,11:00,10,8,11,9,15,13,13,19,17,16,15,""
133,2017-01-06T00:00:00,12:00,10,8,10,,14,15,13,18,19,16,16,""
134,2017-01-06T00:00:00,13:00,11,7,10,,12,17,10,15,18,14,15,""
135,2017-01-06T00:00:00,14:00,13,11,10,10,15,13,14,19,19,17,14,""
136,2017-01-06T00:00:00,15:00,13,10,11,10,17,10,17,22,25,19,15,""
137,2017-01-06T00:00:00,16:00,10,8,12,10,20,10,17,23,24,21,16,""
138,2017-01-06T00:00:00,17:00,10,9,13,9,19,9,16,23,22,21,16,""
139,2017-01-06T00:00:00,18:00,10,10,13,9,17,9,15,22,20,21,20,""
140,2017-01-06T00:00:00,19:00,12,10,14,10,19,7,17,23,23,20,8,""
141,2017-01-06T00:00:00,20:00,13,11,14,11,20,7,18,25,22,22,16,""
142,2017-01-06T00:00:00,21:00,13,10,16,11,18,9,16,21,19,20,14,""
143,2017-01-06T00:00:00,22:00,10,9,16,10,17,9,15,19,19,18,9,""
144,2017-01-06T00:00:00,23:00,8,7,17,8,16,9,13,19,17,17,9,""
145,2017-01-07T00:00:00,00:00,,,,,,,,,,,,""
146,2017-01-07T00:00:00,01:00,3,5,13,7,13,7,10,12,11,12,12,""
147,2017-01-07T00:00:00,02:00,5,4,15,6,16,9,13,17,15,17,9,""
148,2017-01-07T00:00:00,03:00,11,3,17,8,16,10,15,20,18,18,11,""
149,2017-01-07T00:00:00,04:00,15,7,24,12,16,11,14,19,21,18,12,""
150,2017-01-07T00:00:00,05:00,16,11,23,15,18,11,16,20,18,20,11,""
151,2017-01-07T00:00:00,06:00,18,12,21,16,19,10,17,21,22,20,12,""
152,2017-01-07T00:00:00,07:00,15,10,17,12,21,9,19,25,31,21,12,""
153,2017-01-07T00:00:00,08:00,17,13,19,15,23,6,25,27,31,22,12,""
154,2017-01-07T00:00:00,09:00,15,14,19,11,20,6,18,25,25,23,16,""
155,2017-01-07T00:00:00,10:00,11,13,18,10,16,7,17,19,20,18,15,""
156,2017-01-07T00:00:00,11:00,11,10,18,10,16,7,15,20,20,18,13,""
157,2017-01-07T00:00:00,12:00,11,12,18,8,16,9,13,20,19,16,12,""
158,2017-01-07T00:00:00,13:00,10,12,19,8,19,8,16,21,26,18,9,""
159,2017-01-07T00:00:00,14:00,10,11,20,8,24,6,18,25,27,22,8,""
160,2017-01-07T00:00:00,15:00,9,8,20,8,21,7,18,26,27,23,7,""
161,2017-01-07T00:00:00,16:00,9,8,21,8,20,7,16,25,23,23,9,""
162,2017-01-07T00:00:00,17:00,10,9,27,9,20,9,17,25,23,24,8,""
163,2017-01-07T00:00:00,18:00,12,9,25,11,19,10,16,22,20,20,7,""
164,2017-01-07T00:00:00,19:00,18,11,25,13,18,11,16,20,19,20,11,""
165,2017-01-07T00:00:00,20:00,17,12,22,14,16,12,14,17,17,17,10,""
166,2017-01-07T00:00:00,21:00,12,13,23,9,13,13,11,14,12,13,9,""
167,2017-01-07T00:00:00,22:00,16,12,23,12,9,13,7,8,7,8,11,""
168,2017-01-07T00:00:00,23:00,13,8,22,8,10,9,8,9,8,8,10,""
169,2017-01-08T00:00:00,00:00,,,,,,,,,,,,""
170,2017-01-08T00:00:00,01:00,8,6,13,8,9,16,6,8,5,7,19,""
171,2017-01-08T00:00:00,02:00,10,8,17,8,5,24,4,4,3,4,18,""
172,2017-01-08T00:00:00,03:00,10,9,16,8,3,24,3,3,3,2,18,""
173,2017-01-08T00:00:00,04:00,11,9,17,8,4,25,4,4,4,5,14,""
174,2017-01-08T00:00:00,05:00,11,9,17,8,7,24,7,7,7,8,16,""
175,2017-01-08T00:00:00,06:00,13,11,16,10,9,24,8,9,8,9,18,""
176,2017-01-08T00:00:00,07:00,16,14,16,14,13,25,13,15,13,13,20,""
177,2017-01-08T00:00:00,08:00,16,16,16,14,16,22,12,18,19,16,18,""
178,2017-01-08T00:00:00,09:00,12,14,13,13,19,21,17,22,22,19,16,""
179,2017-01-08T00:00:00,10:00,11,13,11,10,20,17,18,22,23,19,15,""
180,2017-01-08T00:00:00,11:00,10,12,11,9,19,20,17,20,18,19,13,""
181,2017-01-08T00:00:00,12:00,11,10,11,9,20,22,16,21,18,17,16,""
182,2017-01-08T00:00:00,13:00,11,9,11,10,20,23,15,20,19,16,14,""
183,2017-01-08T00:00:00,14:00,11,10,13,10,21,28,16,22,22,18,15,""
184,2017-01-08T00:00:00,15:00,9,10,14,8,22,29,15,23,21,19,20,""
185,2017-01-08T00:00:00,16:00,9,10,11,9,23,33,17,24,25,20,21,""
186,2017-01-08T00:00:00,17:00,11,11,12,10,21,37,17,22,25,20,20,""
187,2017-01-08T00:00:00,18:00,11,10,16,11,24,37,20,26,,23,20,""
188,2017-01-08T00:00:00,19:00,10,12,18,11,25,34,16,26,,26,19,""
189,2017-01-08T00:00:00,20:00,12,13,17,13,25,30,23,26,26,25,18,""
190,2017-01-08T00:00:00,21:00,13,14,17,12,25,28,23,28,27,26,18,""
191,2017-01-08T00:00:00,22:00,14,13,18,14,25,28,23,27,25,25,18,""
192,2017-01-08T00:00:00,23:00,15,14,17,18,25,25,25,29,25,24,14,""
193,2017-01-09T00:00:00,00:00,,,,,,,,,,,,""
194,2017-01-09T00:00:00,01:00,19,11,14,14,21,20,16,17,16,17,18,""
195,2017-01-09T00:00:00,02:00,26,12,15,13,19,20,17,20,17,18,17,""
196,2017-01-09T00:00:00,03:00,22,13,15,12,18,24,17,20,17,17,14,""
197,2017-01-09T00:00:00,04:00,15,12,15,9,18,27,18,19,17,17,9,""
198,2017-01-09T00:00:00,05:00,16,13,15,8,22,26,19,20,19,17,9,""
199,2017-01-09T00:00:00,06:00,17,13,16,13,20,22,19,21,20,17,9,""
200,2017-01-09T00:00:00,07:00,18,13,16,17,19,20,17,20,20,17,10,""
201,2017-01-09T00:00:00,08:00,19,14,15,16,16,19,14,19,19,16,8,""
202,2017-01-09T00:00:00,09:00,19,16,11,16,16,19,14,19,18,16,12,""
203,2017-01-09T00:00:00,10:00,15,15,11,16,16,22,14,19,17,15,11,""
204,2017-01-09T00:00:00,11:00,13,15,9,14,15,23,13,16,17,13,11,""
205,2017-01-09T00:00:00,12:00,14,13,8,13,17,22,14,16,16,13,11,""
206,2017-01-09T00:00:00,13:00,14,15,8,11,14,21,11,15,15,10,10,""
207,2017-01-09T00:00:00,14:00,9,14,18,8,14,20,11,15,16,12,9,""
208,2017-01-09T00:00:00,15:00,8,11,14,6,12,20,10,12,14,11,9,""
209,2017-01-09T00:00:00,16:00,14,8,13,7,11,21,9,11,14,10,9,""
210,2017-01-09T00:00:00,17:00,12,15,14,16,9,20,8,10,12,9,11,""
211,2017-01-09T00:00:00,18:00,14,17,19,14,11,20,11,11,14,9,10,""
212,2017-01-09T00:00:00,19:00,16,13,19,14,10,20,10,9,11,9,10,""
213,2017-01-09T00:00:00,20:00,15,14,20,12,7,20,8,10,13,8,11,""
214,2017-01-09T00:00:00,21:00,17,15,19,15,10,21,10,10,11,15,11,""
215,2017-01-09T00:00:00,22:00,18,15,18,16,12,21,12,10,13,17,10,""
216,2017-01-09T00:00:00,23:00,18,15,18,15,14,22,12,11,12,17,9,""
217,2017-01-10T00:00:00,00:00,,,,,,,,,,,,""
218,2017-01-10T00:00:00,01:00,16,13,16,15,18,17,16,15,20,18,9,""
219,2017-01-10T00:00:00,02:00,18,14,20,15,19,20,19,20,21,19,8,""
220,2017-01-10T00:00:00,03:00,19,14,19,15,20,20,19,18,18,19,8,""
221,2017-01-10T00:00:00,04:00,20,15,17,14,21,19,19,21,20,18,8,""
222,2017-01-10T00:00:00,05:00,20,16,16,8,21,19,17,21,19,22,6,""
223,2017-01-10T00:00:00,06:00,25,17,17,19,21,18,18,20,19,33,6,""
224,2017-01-10T00:00:00,07:00,21,19,20,17,21,16,18,21,21,19,8,""
225,2017-01-10T00:00:00,08:00,17,17,16,13,18,14,18,19,21,18,8,""
226,2017-01-10T00:00:00,09:00,16,16,16,13,17,13,16,18,20,16,9,""
227,2017-01-10T00:00:00,10:00,19,13,16,15,18,15,19,20,22,16,11,""
228,2017-01-10T00:00:00,11:00,22,14,15,20,19,15,18,19,20,13,14,""
229,2017-01-10T00:00:00,12:00,19,15,15,20,19,17,15,18,18,15,18,""
230,2017-01-10T00:00:00,13:00,16,16,16,17,18,15,15,16,18,14,16,""
231,2017-01-10T00:00:00,14:00,13,19,15,16,17,13,15,17,17,14,17,""
232,2017-01-10T00:00:00,15:00,14,20,14,15,16,12,14,16,17,14,15,""
233,2017-01-10T00:00:00,16:00,15,21,13,15,16,13,14,15,16,14,15,""
234,2017-01-10T00:00:00,17:00,15,19,14,14,15,13,14,16,16,13,14,""
235,2017-01-10T00:00:00,18:00,15,17,14,13,15,14,15,16,16,14,13,""
236,2017-01-10T00:00:00,19:00,16,14,14,14,15,15,16,17,18,15,14,""
237,2017-01-10T00:00:00,20:00,15,14,14,14,16,15,17,17,18,16,14,""
238,2017-01-10T00:00:00,21:00,15,14,15,13,16,15,17,21,16,16,14,""
239,2017-01-10T00:00:00,22:00,14,14,16,13,16,15,17,19,18,15,13,""
240,2017-01-10T00:00:00,23:00,16,14,15,15,15,15,16,18,16,16,12,""
241,2017-01-11T00:00:00,00:00,,,,,,,,,,,,""
242,2017-01-11T00:00:00,01:00,19,14,13,18,16,24,16,15,16,11,12,""
243,2017-01-11T00:00:00,02:00,18,15,14,17,17,54,17,19,16,14,11,""
244,2017-01-11T00:00:00,03:00,19,14,13,17,16,77,17,20,17,13,9,""
245,2017-01-11T00:00:00,04:00,17,15,13,15,15,46,16,23,19,13,9,""
246,2017-01-11T00:00:00,05:00,15,16,13,13,16,27,17,22,19,12,10,""
247,2017-01-11T00:00:00,06:00,16,19,13,13,21,18,19,22,20,16,10,""
248,2017-01-11T00:00:00,07:00,15,16,13,12,17,14,17,20,18,16,12,""
249,2017-01-11T00:00:00,08:00,14,16,14,12,16,13,13,17,16,13,11,""
250,2017-01-11T00:00:00,09:00,15,16,13,13,15,13,11,16,15,11,9,""
251,2017-01-11T00:00:00,10:00,17,17,11,15,13,14,10,14,12,10,9,""
252,2017-01-11T00:00:00,11:00,19,22,,16,12,16,9,12,10,10,9,""
253,2017-01-11T00:00:00,12:00,20,22,9,17,12,15,10,12,11,6,9,""
254,2017-01-11T00:00:00,13:00,20,26,9,21,11,13,8,11,10,16,8,""
255,2017-01-11T00:00:00,14:00,19,24,9,21,9,12,9,10,8,7,9,""
256,2017-01-11T00:00:00,15:00,16,23,8,18,10,12,9,9,9,7,9,""
257,2017-01-11T00:00:00,16:00,15,21,8,17,10,11,9,10,10,9,9,""
258,2017-01-11T00:00:00,17:00,15,20,11,16,11,11,10,11,11,9,7,""
259,2017-01-11T00:00:00,18:00,13,19,15,14,12,10,11,12,12,11,9,""
260,2017-01-11T00:00:00,19:00,13,16,16,12,11,11,12,12,11,45,9,""
261,2017-01-11T00:00:00,20:00,14,13,19,12,11,11,12,13,11,433,11,""
262,2017-01-11T00:00:00,21:00,15,12,23,13,11,11,12,11,10,202,11,""
263,2017-01-11T00:00:00,22:00,16,13,17,14,10,11,11,12,11,78,11,""
264,2017-01-11T00:00:00,23:00,16,14,15,15,11,11,12,12,11,414,10,""
265,2017-01-12T00:00:00,00:00,,,,,,,,,,,,""
266,2017-01-12T00:00:00,01:00,13,13,12,13,11,9,11,12,10,659,7,""
267,2017-01-12T00:00:00,02:00,15,15,12,13,22,10,12,17,11,418,7,""
268,2017-01-12T00:00:00,03:00,15,13,12,14,61,10,12,39,12,441,6,""
269,2017-01-12T00:00:00,04:00,16,16,12,14,61,10,11,38,12,351,5,""
270,2017-01-12T00:00:00,05:00,16,17,12,16,63,10,12,43,13,209,8,""
271,2017-01-12T00:00:00,06:00,18,15,11,16,49,10,18,44,14,306,9,""
272,2017-01-12T00:00:00,07:00,18,13,11,15,32,8,15,35,15,37,7,""
273,2017-01-12T00:00:00,08:00,20,14,11,15,17,7,18,21,15,14,5,""
274,2017-01-12T00:00:00,09:00,17,16,12,14,16,6,18,18,14,10,6,""
275,2017-01-12T00:00:00,10:00,18,18,14,19,16,9,11,16,14,12,6,""
276,2017-01-12T00:00:00,11:00,21,21,14,22,12,7,11,14,12,12,7,""
277,2017-01-12T00:00:00,12:00,24,22,13,23,11,7,11,14,10,12,8,""
278,2017-01-12T00:00:00,13:00,28,24,14,25,12,6,11,13,13,10,8,""
279,2017-01-12T00:00:00,14:00,26,23,,28,10,6,9,12,9,11,9,""
280,2017-01-12T00:00:00,15:00,24,24,16,25,10,4,9,11,9,7,10,""
281,2017-01-12T00:00:00,16:00,22,25,15,23,9,6,8,8,8,8,5,""
282,2017-01-12T00:00:00,17:00,22,25,15,20,6,5,7,7,7,6,4,""
283,2017-01-12T00:00:00,18:00,21,24,18,19,6,5,7,7,7,5,4,""
284,2017-01-12T00:00:00,19:00,19,22,20,21,8,6,8,8,9,10,5,""
285,2017-01-12T00:00:00,20:00,19,20,30,20,8,6,9,9,9,21,5,""
286,2017-01-12T00:00:00,21:00,18,19,33,17,8,6,10,12,9,36,4,""
287,2017-01-12T00:00:00,22:00,18,19,26,15,8,6,10,11,9,30,5,""
288,2017-01-12T00:00:00,23:00,18,17,14,17,10,7,10,10,10,73,4,""
289,2017-01-13T00:00:00,00:00,,,,,,,,,,,,""
290,2017-01-13T00:00:00,01:00,17,17,14,16,9,5,9,9,7,28,3,""
291,2017-01-13T00:00:00,02:00,17,19,15,16,7,6,8,8,7,21,2,""
292,2017-01-13T00:00:00,03:00,19,19,16,16,7,6,8,8,7,9,3,""
293,2017-01-13T00:00:00,04:00,20,22,17,17,6,6,6,9,5,11,3,""
294,2017-01-13T00:00:00,05:00,23,22,17,18,7,6,6,10,6,13,2,""
295,2017-01-13T00:00:00,06:00,21,23,16,21,8,6,7,9,8,11,6,""
296,2017-01-13T00:00:00,07:00,21,26,17,21,8,5,7,10,9,6,6,""
297,2017-01-13T00:00:00,08:00,26,24,17,30,8,6,9,11,8,6,4,""
298,2017-01-13T00:00:00,09:00,26,35,18,36,9,7,8,9,12,6,4,""
299,2017-01-13T00:00:00,10:00,20,38,15,25,8,5,10,8,9,8,6,""
300,2017-01-13T00:00:00,11:00,15,32,9,20,9,9,10,11,9,9,8,""
301,2017-01-13T00:00:00,12:00,,29,11,19,13,10,13,14,13,10,8,""
302,2017-01-13T00:00:00,13:00,,24,14,22,11,7,10,10,12,8,9,""
303,2017-01-13T00:00:00,14:00,14,24,11,18,7,7,10,7,12,6,9,""
304,2017-01-13T00:00:00,15:00,14,22,13,16,6,7,11,7,14,5,8,""
305,2017-01-13T00:00:00,16:00,11,19,9,12,7,6,9,7,10,6,8,""
306,2017-01-13T00:00:00,17:00,12,16,9,12,8,6,9,8,12,7,9,""
307,2017-01-13T00:00:00,18:00,12,15,10,12,8,7,9,8,10,12,11,""
308,2017-01-13T00:00:00,19:00,12,13,11,11,8,7,9,8,11,28,14,""
309,2017-01-13T00:00:00,20:00,13,11,12,10,8,13,9,15,12,9,20,""
310,2017-01-13T00:00:00,21:00,12,12,13,10,8,16,9,14,10,9,19,""
311,2017-01-13T00:00:00,22:00,10,10,7,10,9,9,10,13,10,10,26,""
312,2017-01-13T00:00:00,23:00,9,10,8,8,8,7,11,10,9,10,25,""
313,2017-01-14T00:00:00,00:00,,,,,,,,,,,,""
314,2017-01-14T00:00:00,01:00,8,10,5,9,11,7,11,11,10,39,26,""
315,2017-01-14T00:00:00,02:00,8,11,6,10,10,10,11,12,10,38,29,""
316,2017-01-14T00:00:00,03:00,8,11,7,9,11,11,11,16,10,22,27,""
317,2017-01-14T00:00:00,04:00,7,12,7,9,10,13,12,12,11,34,19,""
318,2017-01-14T00:00:00,05:00,10,13,11,10,12,13,11,20,11,36,17,""
319,2017-01-14T00:00:00,06:00,11,21,15,12,11,11,12,28,12,14,13,""
320,2017-01-14T00:00:00,07:00,11,15,13,13,10,9,12,12,14,11,18,""
321,2017-01-14T00:00:00,08:00,12,13,11,13,8,8,10,11,11,9,23,""
322,2017-01-14T00:00:00,09:00,12,14,10,13,7,26,8,8,7,6,20,""
323,2017-01-14T00:00:00,10:00,13,16,11,14,5,15,7,7,7,5,13,""
324,2017-01-14T00:00:00,11:00,15,15,17,14,5,9,6,6,10,5,15,""
325,2017-01-14T00:00:00,12:00,20,14,14,19,6,9,6,7,16,6,15,""
326,2017-01-14T00:00:00,13:00,17,16,15,22,7,10,10,8,19,7,9,""
327,2017-01-14T00:00:00,14:00,17,19,17,19,12,9,13,13,17,11,3,""
328,2017-01-14T00:00:00,15:00,18,20,20,18,11,10,11,13,12,10,1,""
329,2017-01-14T00:00:00,16:00,19,20,22,18,8,10,9,9,11,9,1,""
330,2017-01-14T00:00:00,17:00,21,18,26,19,10,11,11,13,16,12,2,""
331,2017-01-14T00:00:00,18:00,22,18,29,20,12,12,13,14,17,13,2,""
332,2017-01-14T00:00:00,19:00,23,18,31,20,13,12,13,15,15,14,1,""
333,2017-01-14T00:00:00,20:00,25,17,36,20,16,12,17,18,18,17,1,""
334,2017-01-14T00:00:00,21:00,25,17,26,22,16,12,17,20,18,18,2,""
335,2017-01-14T00:00:00,22:00,23,17,12,22,17,12,19,34,18,14,2,""
336,2017-01-14T00:00:00,23:00,20,18,12,19,18,14,18,34,46,14,2,""
337,2017-01-15T00:00:00,00:00,,,,,,,,,,,,""
338,2017-01-15T00:00:00,01:00,14,18,13,18,16,10,19,19,19,12,3,""
339,2017-01-15T00:00:00,02:00,15,9,14,14,15,12,18,18,21,14,3,""
340,2017-01-15T00:00:00,03:00,10,10,17,12,15,12,17,18,17,16,3,""
341,2017-01-15T00:00:00,04:00,9,10,23,12,14,12,16,17,15,15,3,""
342,2017-01-15T00:00:00,05:00,12,10,22,11,13,12,14,20,14,14,3,""
343,2017-01-15T00:00:00,06:00,5,10,19,6,11,13,13,13,12,12,4,""
344,2017-01-15T00:00:00,07:00,13,11,14,9,8,17,10,9,9,10,3,""
345,2017-01-15T00:00:00,08:00,12,12,13,9,7,16,10,10,9,10,4,""
346,2017-01-15T00:00:00,09:00,13,11,12,9,8,15,10,12,10,8,4,""
347,2017-01-15T00:00:00,10:00,30,12,14,9,8,13,9,10,7,7,4,""
348,2017-01-15T00:00:00,11:00,26,19,14,12,7,11,8,9,7,5,5,""
349,2017-01-15T00:00:00,12:00,21,11,14,15,7,14,8,8,8,6,5,""
350,2017-01-15T00:00:00,13:00,11,10,14,13,7,15,7,7,9,6,5,""
351,2017-01-15T00:00:00,14:00,10,16,17,11,6,16,7,7,9,7,5,""
352,2017-01-15T00:00:00,15:00,19,11,17,15,7,18,9,9,11,7,5,""
353,2017-01-15T00:00:00,16:00,15,11,17,17,6,16,10,7,10,6,4,""
354,2017-01-15T00:00:00,17:00,14,10,17,11,7,20,9,8,10,7,4,""
355,2017-01-15T00:00:00,18:00,15,6,17,10,7,28,9,8,11,7,5,""
356,2017-01-15T00:00:00,19:00,16,8,16,14,9,36,11,11,14,9,6,""
357,2017-01-15T00:00:00,20:00,16,7,15,7,13,42,12,14,12,14,6,""
358,2017-01-15T00:00:00,21:00,9,4,13,10,11,50,11,12,11,13,6,""
359,2017-01-15T00:00:00,22:00,10,5,11,10,9,59,10,10,9,10,5,""
360,2017-01-15T00:00:00,23:00,9,5,10,7,7,52,8,8,7,9,4,""
361,2017-01-16T00:00:00,00:00,,,,,,,,,,,,""
362,2017-01-16T00:00:00,01:00,4,5,8,5,7,14,9,7,10,8,4,""
363,2017-01-16T00:00:00,02:00,,5,9,7,8,12,10,11,10,14,3,""
364,2017-01-16T00:00:00,03:00,5,6,9,5,8,12,9,9,9,9,5,""
365,2017-01-16T00:00:00,04:00,5,7,7,4,8,17,8,8,8,8,6,""
366,2017-01-16T00:00:00,05:00,8,6,7,4,7,17,8,8,11,8,7,""
367,2017-01-16T00:00:00,06:00,6,6,7,5,6,12,9,7,8,8,6,""
368,2017-01-16T00:00:00,07:00,8,6,6,7,7,9,9,9,10,7,2,""
369,2017-01-16T00:00:00,08:00,9,7,6,8,8,9,8,12,9,8,3,""
370,2017-01-16T00:00:00,09:00,11,10,,10,7,10,8,11,9,8,3,""
371,2017-01-16T00:00:00,10:00,10,9,4,11,6,10,7,9,8,8,4,""
372,2017-01-16T00:00:00,11:00,11,10,5,10,6,10,7,8,,6,4,""
373,2017-01-16T00:00:00,12:00,11,13,5,11,5,37,6,7,7,6,5,""
374,2017-01-16T00:00:00,13:00,11,12,6,11,5,62,7,7,7,4,3,""
375,2017-01-16T00:00:00,14:00,12,12,5,12,6,20,6,8,7,5,4,""
376,2017-01-16T00:00:00,15:00,12,13,5,12,6,30,6,8,7,5,4,""
377,2017-01-16T00:00:00,16:00,12,13,5,12,5,11,6,7,6,5,4,""
378,2017-01-16T00:00:00,17:00,13,12,5,12,5,7,5,6,6,4,4,""
379,2017-01-16T00:00:00,18:00,11,12,5,13,5,7,6,7,7,5,6,""
380,2017-01-16T00:00:00,19:00,10,14,5,13,6,10,7,9,10,6,7,""